Weather Roundup
Issued by NWS Springfield, MO

Home | Current Version | Previous Version | Text Only | Print | Product List | Glossary Off
Versions: 1 2 3 4 5 6 7 8 9 10 11 12 13 14 15 16 17 18 19 20 21 22 23 24 25 26 27 28 29 30 31 32 33 34 35 36 37 38 39 40 41 42 43 44 45 46 47 48 49 50

000
NZUS99 KSGF 231607
HRRSGF

HOURLY WEATHER
NATIONAL WEATHER SERVICE SPRINGFIELD MO
1000 AM CST TUE JAN 23 2018

......SGF CWA......

CITY           SKY/WX    TMP DP  RH WIND       PRES   REMARKS
SPRINGFIELD    CLOUDY    32  26  78 NW13      30.14R WCI  22
JOPLIN         CLOUDY    32  27  81 NW8       30.21R WCI  25
WEST PLAINS    CLOUDY    33  25  72 NW15G23   30.11R WCI  23
ROLLA          CLOUDY    32  26  78 NW16G30   30.07R WCI  21
OSAGE BEACH    CLOUDY    34  26  72 NW9G16    30.12R WCI  27
BRANSON        CLOUDY    32  25  74 NW13G21   30.16R WCI  22

......SURROUNDING SGF CWA......

CITY           SKY/WX    TMP DP  RH WIND       PRES   REMARKS
CHANUTE        NOT AVBL
PARSONS        CLOUDY    30  25  81 VRB7      30.24R WCI  23
COFFEYVILLE    SUNNY     32  23  69 NW10      30.24R WCI  24
EMPORIA        CLOUDY    27  21  78 VRB5      30.21R WCI  22
GROVE OK       CLOUDY    34  30  86 NW8       30.23R WCI  27
ROGERS AR      CLOUDY    32  27  81 W9        30.20R WCI  24
SILOAM SPRINGS CLOUDY    32  27  81 NW10        N/A  WCI  24
HARRISON AR    CLOUDY    34  26  72 W12       30.15R WCI  25
NEAR YELLVILLE CLOUDY    36  25  64 NW20      30.17R WCI  25

......KANSAS AND MISSOURI......

CITY           SKY/WX    TMP DP  RH WIND       PRES   REMARKS
KANSAS CTY INT CLOUDY    28  24  85 NW12      30.17R WCI  18
DOWNTOWN KC    CLOUDY    31  24  75 NW10      30.18R WCI  22
COLUMBIA       CLOUDY    33  27  78 NW21      30.07R WCI  21
SEDALIA        CLOUDY    33  30  88 NW13G24   30.12R WCI  24
ST JOSEPH      CLOUDY    28  25  88 MISG      30.18R
ST LOUIS       CLOUDY    34  29  82 W18G25    30.01R WCI  23
SPIRIT OF STL  CLOUDY    35  27  72 W21G31    30.03R WCI  24
KIRKSVILLE     CLOUDY    31  27  85 NW15G24   30.05R WCI  20
WICHITA        SUNNY     33  22  63 NW10      30.24R WCI  25
TOPEKA         CLOUDY    27  22  81 N10       30.21R WCI  17
OLATHE         CLOUDY    27  24  89 NW9       30.17R WCI  18

......TENNESSEE......

CITY           SKY/WX    TMP DP  RH WIND       PRES   REMARKS
MEMPHIS        FAIR      43  29  57 NW16      30.11R
NASHVILLE      FAIR      48  29  47 W8        30.00R

......ARKANSAS.......

CITY           SKY/WX    TMP DP  RH WIND       PRES   REMARKS
FAYETTEVILLE   CLOUDY    32  28  85 NW8       30.20R WCI  25
FT SMITH       SUNNY     40  27  59 W12       30.24R WCI  33
LITTLE ROCK    FAIR      44  28  53 NW17G25   30.18R

......OKLAHOMA.......

CITY           SKY/WX    TMP DP  RH WIND       PRES   REMARKS
TULSA          SUNNY     37  24  59 NW8       30.26R WCI  31
PONCA CITY     SUNNY     34  20  56 NW12      30.26R WCI  25
MCALESTER      SUNNY     38  23  55 NW9       30.27R WCI  31
OKLAHOMA CITY  MOSUNNY   38  18  44 N9        30.27R WCI  31

......IOWA............

CITY           SKY/WX    TMP DP  RH WIND       PRES   REMARKS
DES MOINES     CLOUDY    26  20  77 NW18      30.08R WCI  13
QUAD CITIES    CLOUDY    32  23  69 N16G29    29.92R WCI  21

......ILLINOIS........

CITY           SKY/WX    TMP DP  RH WIND       PRES   REMARKS
QUINCY         CLOUDY    32  26  78 NW16      29.99R WCI  21
CHICAGO        CLOUDY    31  26  82 NW15      29.78R WCI  20




USA.gov is the U.S. government's official web portal to all federal, state and local government web resources and services.